Location: Abraham Lincoln Continuation High School
(33.9711°N, 117.3662°W)
Time: 13:53:37
(UTC+00:00)

NOSS 3-2 (A) - Pass Details

Date: 21 September 2020
Orbit: 795 x 1413 km, 63.4° (Epoch: 28 October)

Event Time Altitude Azimuth Distance (km) Brightness Sun altitude
Rises 03:30:50 0° 333° (NNW) 4,055 7.4 -21.9°
Reaches altitude 10° 03:33:30 10° 337° (NNW) 3,172 6.7 -22.4°
Maximum altitude 03:41:13 60° 56° (ENE) 1,496 4.2 -23.9°
Enters shadow 03:43:57 43° 113° (ESE) 1,830 4.4 -24.4°
